TimePDT,TemperatureF,Dew PointF,Humidity,Sea Level PressureIn,VisibilityMPH,Wind Direction,Wind SpeedMPH,Gust SpeedMPH,PrecipitationIn,Events,Conditions,WindDirDegrees,DateUTC
12:53 AM,61.0,21.0,21,30.04,10.0,West,3.5,-,N/A,,Clear,270,2014-03-23 07:53:00
1:53 AM,57.9,23.0,26,30.06,10.0,North,3.5,-,N/A,,Clear,360,2014-03-23 08:53:00
2:53 AM,57.9,23.0,26,30.06,10.0,Calm,Calm,-,N/A,,Clear,0,2014-03-23 09:53:00
3:53 AM,55.0,23.0,29,30.06,10.0,WNW,4.6,-,N/A,,Clear,300,2014-03-23 10:53:00
4:53 AM,54.0,23.0,30,30.08,10.0,WNW,5.8,-,N/A,,Clear,290,2014-03-23 11:53:00
5:53 AM,55.9,21.0,26,30.09,10.0,WSW,4.6,-,N/A,,Clear,240,2014-03-23 12:53:00
6:53 AM,52.0,21.0,30,30.12,10.0,Calm,Calm,-,N/A,,Clear,0,2014-03-23 13:53:00
7:53 AM,54.0,23.0,30,30.13,10.0,NW,4.6,-,N/A,,Clear,320,2014-03-23 14:53:00
8:53 AM,61.0,23.0,23,30.14,10.0,Calm,Calm,-,N/A,,Clear,0,2014-03-23 15:53:00
9:53 AM,64.0,19.9,18,30.15,10.0,ESE,3.5,-,N/A,,Clear,120,2014-03-23 16:53:00
10:53 AM,66.9,17.1,15,30.15,10.0,East,4.6,-,N/A,,Clear,90,2014-03-23 17:53:00
11:53 AM,69.1,14.0,12,30.12,10.0,Calm,Calm,-,N/A,,Clear,0,2014-03-23 18:53:00
12:53 PM,73.0,12.0,10,30.10,10.0,Calm,Calm,-,N/A,,Clear,0,2014-03-23 19:53:00
1:53 PM,73.0,14.0,11,30.07,10.0,SSE,5.8,-,N/A,,Clear,150,2014-03-23 20:53:00
2:53 PM,75.0,15.1,10,30.04,10.0,NW,3.5,-,N/A,,Clear,320,2014-03-23 21:53:00
3:53 PM,75.9,16.0,10,30.02,10.0,Calm,Calm,-,N/A,,Clear,0,2014-03-23 22:53:00
4:53 PM,77.0,16.0,10,30.01,10.0,Calm,Calm,-,N/A,,Clear,0,2014-03-23 23:53:00
5:53 PM,77.0,17.1,10,30.00,10.0,NW,3.5,-,N/A,,Clear,320,2014-03-24 00:53:00
6:53 PM,75.9,18.0,11,30.01,10.0,West,4.6,-,N/A,,Clear,260,2014-03-24 01:53:00
7:53 PM,73.0,19.9,14,30.02,10.0,WSW,5.8,-,N/A,,Clear,240,2014-03-24 02:53:00
8:53 PM,72.0,21.0,15,30.04,10.0,Calm,Calm,-,N/A,,Clear,0,2014-03-24 03:53:00
9:53 PM,68.0,21.0,17,30.06,10.0,North,4.6,-,N/A,,Clear,360,2014-03-24 04:53:00
10:53 PM,63.0,21.0,20,30.07,10.0,NW,5.8,-,N/A,,Clear,320,2014-03-24 05:53:00
11:53 PM,61.0,23.0,23,30.06,10.0,NW,5.8,-,N/A,,Clear,320,2014-03-24 06:53:00